Regional Weather Roundup
Issued by NWS Kansas City/Pleasant Hill, MO

Home | Current Version | Previous Version | Graphics & Text | Print | Product List | Glossary Off
Versions: 1 2 3 4 5 6 7 8 9 10 11 12 13 14 15 16 17 18 19 20 21 22 23 24 25 26 27 28 29 30 31 32 33 34 35 36 37 38 39 40 41 42 43 44 45 46 47 48 49 50

000
ASUS43 KEAX 290810
RWREAX

WEATHER ROUNDUP FOR EASTERN KANSAS AND NORTHWEST MISSOURI
NATIONAL WEATHER SERVICE KANSAS CITY/PLEASANT HILL MO
200 AM CST SAT NOV 29 2014

KSZ040-057-103>105-MOZ028-029-037-043-290900-
...KANSAS CITY METROPOLITAN AREA...

CITY           SKY/WX    TMP DP  RH WIND       PRES   REMARKS
K.C. INTL      CLOUDY    51  41  68 SW15      29.68S
K.C. DOWNTOWN  CLOUDY    55  43  63 SW9       29.69S
LEES SUMMIT    CLOUDY    54  44  69 SW20G31   29.70F
OLATHE - IXD   CLOUDY    53  45  74 S13       29.71F
OLATHE - OJC   CLOUDY    52  44  74 SW9       29.70F
LAWRENCE       CLOUDY    52  40  63 SW7       29.70F

$$

MOZ001>008-011>017-020>025-030>033-038>040-044>046-053-054-290900-
...NORTHERN AND CENTRAL MISSOURI...

CITY           SKY/WX    TMP DP  RH WIND       PRES   REMARKS
ST. JOSEPH     CLOUDY    48  38  68 S10       29.66F
MOSBY          CLOUDY    52  41  66 SE5       29.69S
WARRENSBURG    CLOUDY    54  45  71 S14G22    29.72S
WHITEMAN AFB   MOCLDY    53  45  74 SW20      29.71F
CLINTON        CLOUDY    52  45  76 S8        29.76F
SEDALIA        MOCLDY    54  44  69 SW18G25   29.73F
WARSAW         NOT AVBL
MARSHALL       MOCLDY    54  45  71 SW13      29.72F
CHILLICOTHE      N/A     41  35  79 S6        29.68F
KIRKSVILLE     PTCLDY    44  38  79 S10       29.69F

$$

MOZ041-047>049-056>058-063>065-088>090-097-290900-
...EASTERN AND SOUTHERN MISSOURI...

CITY           SKY/WX    TMP DP  RH WIND       PRES   REMARKS
ST. LOUIS INTL PTCLDY    45  34  65 S12       29.85F
SPIRIT OF STL  MOCLDY    41  33  73 CALM      29.83F
COLUMBIA       MOCLDY    45  37  73 S12       29.76F
JEFFERSON CITY MOCLDY    46  36  68 SE6       29.78F
MEXICO         PTCLDY    48  41  76 S16G22    29.75F
ROLLA          MOCLDY    46  37  71 S16       29.79F
LEBANON        CLOUDY    48  41  76 S9        29.81F
OSAGE BEACH    CLOUDY    45  36  70 SE6       29.79F
SPRINGFIELD    CLOUDY    46  39  76 S12       29.82F
BRANSON        CLOUDY    54  46  76 SW10G18   29.86F
JOPLIN         CLOUDY    54  46  74 S14       29.80F
WEST PLAINS    MOCLDY    45  37  73 S7        29.90S

$$

IAZ060-094-KSZ022-034>040-054-083-096-NEZ052-066-093-290900-
...KANSAS...SOUTHEAST NEBRASKA AND IOWA...

CITY           SKY/WX    TMP DP  RH WIND       PRES   REMARKS
TOPEKA         CLOUDY    50  39  66 S3        29.69F
MANHATTAN      CLOUDY    45  39  79 SW8       29.68S
EMPORIA        MOCLDY    47  41  80 S17       29.69F
CHANUTE        CLOUDY    51  46  83 S12       29.76F
WICHITA        MOCLDY    46  40  79 S9        29.68F
OMAHA          PTCLDY    35  31  85 SE9       29.59S WCI  28
LINCOLN        MOCLDY    41  31  67 S5        29.61S
FALLS CITY     CLOUDY    48  37  65 SW5       29.63F
LAMONI         PTCLDY    38  33  82 S12       29.62F WCI  30
DES MOINES     MOCLDY    36  31  82 SE8       29.60F WCI  30

$$




USA.gov is the U.S. government's official web portal to all federal, state and local government web resources and services.